Lid_Strength_Index
2 1 1 1 2 2 3 3 4 6 5 3 4 2 1 1 -1 0 1 1 2 1 2 1 1 1 0 -0 -0 -0 -1 -1 -1 -1 -1 -2 -2 -2
1 2 2 1 1 2 2 2 3 4 5 3 3 2 2 -0 -0 0 -0 1 1 2 2 2 1 1 1 1 1 1 0 0 -0 -0 -1 -1 -1 -2
1 2 2 1 2 2 1 2 2 3 4 3 3 1 1 1 0 0 -0 1 1 2 3 3 2 3 2 2 1 1 1 1 1 1 0 0 -1 -1
2 2 2 1 2 2 2 2 2 3 3 4 3 1 1 1 0 0 -0 -0 1 2 3 4 4 4 5 4 4 3 3 2 2 2 2 1 1 -0
1 1 1 2 2 2 2 2 2 2 2 3 3 2 1 1 1 0 1 0 0 1 2 3 4 4 5 5 6 6 5 5 4 4 4 3 2 1
1 1 1 2 2 2 2 2 2 2 3 3 3 3 3 2 2 3 2 1 2 -0 1 2 2 2 3 4 5 5 6 7 7 7 6 5 4 3
1 2 2 1 2 2 1 2 2 2 3 3 4 3 3 3 3 2 3 2 2 0 1 1 1 1 1 2 3 3 5 7 7 7 7 8 8 7
2 2 3 3 2 3 3 2 2 3 3 3 3 4 4 3 2 2 3 3 4 0 1 1 1 2 0 1 3 5 5 5 6 7 8 9 9 8
1 2 3 3 3 2 4 5 5 5 3 3 3 3 3 2 3 3 3 3 3 2 2 4 1 3 0 1 3 4 7 7 7 7 7 7 8 8
1 2 4 5 4 2 4 7 6 6 6 5 5 4 4 4 3 3 3 2 2 1 3 5 2 2 2 0 2 4 5 6 7 8 8 9 10 10
4 5 5 5 6 5 7 7 6 5 4 4 4 4 4 4 4 3 4 4 4 3 4 4 4 2 2 1 1 5 5 6 6 6 7 9 10 9
5 6 6 6 7 8 8 7 7 7 5 5 5 5 5 5 4 5 4 4 4 6 5 5 4 3 3 2 2 5 5 6 7 8 8 8 9 6
7 8 8 8 8 8 8 7 6 5 5 6 6 6 6 6 6 6 5 5 6 7 7 4 8 6 6 5 5 6 7 7 8 9 9 9 9 9
8 9 9 10 9 9 7 7 6 6 7 7 8 8 8 7 7 7 7 6 6 7 7 7 8 8 8 8 8 7 7 8 9 10 9 9 8 8
8 9 9 10 10 9 8 8 7 7 8 9 10 10 10 9 9 9 9 8 9 8 7 8 8 7 7 8 7 8 8 8 9 9 8 7 7 6
6 6 8 9 9 9 9 9 9 9 10 11 11 11 10 10 10 10 11 10 10 10 8 8 9 10 11 9 10 11 11 12 10 10 10 10 9 8
8 8 9 9 10 10 11 11 11 11 12 12 12 12 12 11 11 11 11 11 12 12 11 11 11 11 11 10 12 12 13 13 12 11 11 12 11 11
9 9 10 10 11 11 11 12 12 12 12 12 13 13 12 12 12 11 12 13 13 12 13 13 13 13 13 12 10 13 13 13 12 12 12 12 12 10
10 11 12 12 12 11 12 12 13 13 13 13 13 13 12 12 13 13 13 13 14 14 14 14 14 14 15 15 13 9 13 12 12 12 11 12 12 11
11 11 11 11 12 12 12 13 13 13 14 14 14 14 14 14 14 15 14 14 14 14 15 15 14 13 14 14 14 12 9 12 12 12 12 10 10 8
11 12 11 12 13 13 13 13 13 13 13 14 14 14 14 14 14 15 15 14 14 14 14 15 13 10 13 13 13 13 12 9 9 11 10 10 10 10
11 12 12 12 12 13 13 14 14 14 15 15 15 15 15 15 15 15 15 15 15 15 14 13 13 13 13 13 13 13 12 10 9 8 7 8 10 12
11 11 12 13 13 13 13 13 14 14 15 15 15 16 15 16 16 16 15 15 14 14 14 14 13 13 13 13 12 12 11 11 10 10 9 7 7 7